Location: Allen Lane School
(37.8198°N, 89.7382°W)
Time: 21:50:21
(UTC+00:00)

Cosmos 44 - Pass Details

Date: 03 July 2022
Orbit: 595 x 766 km, 65.1° (Epoch: 13 August)

Event Time Altitude Azimuth Distance (km) Brightness Sun altitude
Exits shadow 06:06:01 27° 60° (ENE) 1,218 4.8 -29.2°
Drops below altitude 10° 06:08:19 10° 43° (NE) 2,011 6.2 -29.2°
Sets 06:10:37 0° 37° (NE) 2,899 7.3 -29.2°
